Weather History for Sturgeon Bay, WI

Change the Weather History Date:

Saturday, October 9, 2010

  Actual Average Record
Temperature  
Mean Temperature 58 °F -  
Max Temperature 62 °F 57 °F 77 °F (1918)
Min Temperature 55 °F 40 °F 22 °F (1989)
Degree Days  
Heating Degree Days 6    
Growing Degree Days 8 (Base 50)    
Moisture  
Dew Point 51 °F    
Average Humidity 75    
Maximum Humidity 94    
Minimum Humidity 59    
Precipitation  
Precipitation 0.00 in - - ()
Sea Level Pressure  
Sea Level Pressure 30.04 in    
Wind  
Wind Speed 8 mph (ENE)    
Max Wind Speed 13 mph    
Max Gust Speed 18 mph    
Visibility 10 miles    
Events      
Averages and records for this station are not official NWS values.
T = Trace of Precipitation, MM = Missing Value Source: NWS Daily Summary

Daily Weather History Graph

Daily Weather History Graph

Search for Another Location

Airport:

Trip Planner

Search our weather history database for the weather conditions in past years. The results will help you decide how hot, cold, wet, or windy it might be!

Date:

Astronomy

Oct. 09, 2010 Rise Set
Actual Time 6:57 AM CDT 6:15 PM CDT
Civil Twilight 6:28 AM CDT 6:44 PM CDT
Nautical Twilight 5:54 AM CDT 7:18 PM CDT
Astronomical Twilight 5:20 AM CDT 7:52 PM CDT
Moon 9:27 AM CDT (10/9) 7:00 PM CDT (10/9)
Length of Visible Light 12h 16m
Length of Day
11h 17m
Waxing Crescent, 5% of the Moon is Illuminated
Oct 9
Waxing Crescent
Oct 14
First Quarter
Oct 22
Full
Oct 30
Last Quarter
Nov 5
New

Hourly Weather History & Observations

Time (CDT) Temp. Dew Point Humidity Pressure Visibility Wind Dir Wind Speed Gust Speed Precip Events Conditions
12:15 AM 57.2 °F 53.6 °F 88% 29.95 in 10.0 mi NW 4.6 mph - N/A   Clear
12:35 AM 57.2 °F 53.6 °F 88% 29.95 in 10.0 mi NNW 5.8 mph - N/A   Clear
12:55 AM 57.2 °F 53.6 °F 88% 29.96 in 10.0 mi NNW 5.8 mph - N/A   Clear
1:15 AM 55.4 °F 53.6 °F 94% 29.97 in 10.0 mi NNW 6.9 mph - N/A   Clear
1:35 AM 57.2 °F 53.6 °F 88% 29.97 in 10.0 mi North 9.2 mph - N/A   Clear
1:55 AM 55.4 °F 51.8 °F 88% 29.97 in 10.0 mi North 9.2 mph - N/A   Clear
2:15 AM 55.4 °F 51.8 °F 88% 29.98 in 10.0 mi North 10.4 mph - N/A   Clear
2:35 AM 55.4 °F 51.8 °F 88% 29.98 in 10.0 mi NNE 8.1 mph - N/A   Clear
2:55 AM 55.4 °F 50.0 °F 82% 29.98 in 10.0 mi NNE 8.1 mph - N/A   Clear
3:15 AM 55.4 °F 48.2 °F 77% 29.98 in 10.0 mi NNE 8.1 mph - N/A   Clear
3:35 AM 55.4 °F 48.2 °F 77% 29.98 in 10.0 mi NNE 6.9 mph - N/A   Clear
3:55 AM 55.4 °F 48.2 °F 77% 29.99 in 10.0 mi NNE 5.8 mph - N/A   Clear
4:15 AM 55.4 °F 48.2 °F 77% 29.99 in 10.0 mi NNE 6.9 mph - N/A   Clear
4:35 AM 55.4 °F 48.2 °F 77% 29.99 in 10.0 mi NE 9.2 mph - N/A   Clear
4:55 AM 55.4 °F 48.2 °F 77% 29.99 in 10.0 mi NE 8.1 mph - N/A   Clear
5:15 AM 55.4 °F 50.0 °F 82% 30.01 in 10.0 mi NE 6.9 mph - N/A   Clear
5:35 AM 55.4 °F 51.8 °F 88% 30.01 in 10.0 mi NE 8.1 mph - N/A   Clear
5:55 AM 55.4 °F 51.8 °F 88% 30.02 in 10.0 mi NE 9.2 mph - N/A   Clear
6:15 AM 55.4 °F 51.8 °F 88% 30.03 in 10.0 mi NE 6.9 mph - N/A   Clear
6:35 AM 55.4 °F 51.8 °F 88% 30.03 in 10.0 mi NE 8.1 mph - N/A   Clear
6:55 AM 57.2 °F 53.6 °F 88% 30.03 in 10.0 mi ENE 6.9 mph - N/A   Clear
7:15 AM 57.2 °F 53.6 °F 88% 30.03 in 10.0 mi ENE 6.9 mph - N/A   Clear
7:35 AM 57.2 °F 51.8 °F 82% 30.04 in 10.0 mi ENE 8.1 mph - N/A   Clear
7:55 AM 57.2 °F 51.8 °F 82% 30.04 in 10.0 mi ENE 5.8 mph - N/A   Clear
8:15 AM 57.2 °F 51.8 °F 82% 30.05 in 10.0 mi ENE 9.2 mph - N/A   Clear
8:35 AM 59.0 °F 51.8 °F 77% 30.05 in 10.0 mi East 8.1 mph - N/A   Clear
8:55 AM 59.0 °F 51.8 °F 77% 30.06 in 10.0 mi East 9.2 mph 17.3 mph N/A   Clear
9:15 AM 60.8 °F 50.0 °F 68% 30.06 in 10.0 mi East 10.4 mph 18.4 mph N/A   Clear
9:35 AM 60.8 °F 50.0 °F 68% 30.06 in 10.0 mi East 12.7 mph 18.4 mph N/A   Clear
9:55 AM 60.8 °F 48.2 °F 63% 30.07 in 10.0 mi East 11.5 mph 18.4 mph N/A   Clear
10:15 AM 60.8 °F 50.0 °F 68% 30.07 in 10.0 mi East 10.4 mph 17.3 mph N/A   Clear
10:35 AM 60.8 °F 50.0 °F 68% 30.07 in 10.0 mi East 11.5 mph 16.1 mph N/A   Clear
10:55 AM 60.8 °F 50.0 °F 68% 30.07 in 10.0 mi East 9.2 mph - N/A   Clear
11:15 AM 60.8 °F 50.0 °F 68% 30.08 in 10.0 mi ESE 11.5 mph - N/A   Clear
11:35 AM 60.8 °F 50.0 °F 68% 30.09 in 10.0 mi ESE 10.4 mph 17.3 mph N/A   Clear
11:55 AM 62.6 °F 50.0 °F 63% 30.08 in 10.0 mi East 9.2 mph - N/A   Clear
12:15 PM 62.6 °F 50.0 °F 63% 30.10 in 10.0 mi ESE 9.2 mph - N/A   Clear
12:35 PM 62.6 °F 48.2 °F 59% 30.08 in 10.0 mi East 9.2 mph - N/A   Clear
12:55 PM 62.6 °F 50.0 °F 63% 30.08 in 10.0 mi ENE 10.4 mph - N/A   Clear
1:15 PM 62.6 °F 51.8 °F 68% 30.08 in 10.0 mi NE 10.4 mph - N/A   Clear
1:35 PM 62.6 °F 51.8 °F 68% 30.08 in 10.0 mi ENE 9.2 mph - N/A   Clear
1:55 PM 62.6 °F 51.8 °F 68% 30.07 in 10.0 mi ENE 6.9 mph - N/A   Clear
2:15 PM 62.6 °F 51.8 °F 68% 30.07 in 10.0 mi East 9.2 mph - N/A   Clear
2:35 PM 62.6 °F 50.0 °F 63% 30.07 in 10.0 mi ENE 8.1 mph - N/A   Clear
2:55 PM 62.6 °F 50.0 °F 63% 30.07 in 10.0 mi East 10.4 mph - N/A   Clear
3:15 PM 62.6 °F 50.0 °F 63% 30.07 in 10.0 mi East 10.4 mph - N/A   Clear
3:35 PM 62.6 °F 48.2 °F 59% 30.06 in 10.0 mi East 9.2 mph - N/A   Clear
3:55 PM 62.6 °F 48.2 °F 59% 30.06 in 10.0 mi ENE 9.2 mph - N/A   Clear
4:15 PM 62.6 °F 48.2 °F 59% 30.06 in 10.0 mi NE 6.9 mph - N/A   Clear
4:35 PM 60.8 °F 50.0 °F 68% 30.05 in 10.0 mi ENE 8.1 mph - N/A   Clear
4:55 PM 60.8 °F 48.2 °F 63% 30.05 in 10.0 mi ENE 8.1 mph - N/A   Clear
5:15 PM 60.8 °F 48.2 °F 63% 30.05 in 10.0 mi ENE 8.1 mph - N/A   Clear
5:35 PM 59.0 °F 50.0 °F 72% 30.05 in 10.0 mi NE 8.1 mph - N/A   Clear
5:55 PM 57.2 °F 50.0 °F 77% 30.05 in 10.0 mi ENE 6.9 mph - N/A   Clear
6:15 PM 57.2 °F 50.0 °F 77% 30.04 in 10.0 mi ENE 5.8 mph - N/A   Clear
6:35 PM 57.2 °F 50.0 °F 77% 30.05 in 10.0 mi ENE 5.8 mph - N/A   Clear
6:55 PM 55.4 °F 50.0 °F 82% 30.05 in 10.0 mi ENE 5.8 mph - N/A   Clear
7:15 PM 55.4 °F 50.0 °F 82% 30.05 in 10.0 mi ENE 5.8 mph - N/A   Clear
7:35 PM 55.4 °F 50.0 °F 82% 30.05 in 10.0 mi ENE 5.8 mph - N/A   Clear
7:55 PM 55.4 °F 50.0 °F 82% 30.04 in 10.0 mi ENE 4.6 mph - N/A   Clear
8:15 PM 55.4 °F 51.8 °F 88% 30.02 in 10.0 mi ENE 5.8 mph - N/A   Clear
8:35 PM 55.4 °F 51.8 °F 88% 30.02 in 10.0 mi NE 5.8 mph - N/A   Clear
8:55 PM 55.4 °F 51.8 °F 88% 30.01 in 10.0 mi ENE 4.6 mph - N/A   Clear
9:15 PM 55.4 °F 51.8 °F 88% 30.00 in 10.0 mi NE 3.5 mph - N/A   Clear
9:35 PM 55.4 °F 51.8 °F 88% 30.00 in 10.0 mi ENE 4.6 mph - N/A   Clear
9:55 PM 55.4 °F 51.8 °F 88% 30.00 in 10.0 mi Calm Calm - N/A   Clear
10:15 PM 53.6 °F 51.8 °F 94% 29.99 in 10.0 mi Calm Calm - N/A   Clear
10:35 PM 53.6 °F 51.8 °F 94% 29.99 in 10.0 mi Calm Calm - N/A   Clear
10:55 PM 53.6 °F 51.8 °F 94% 29.99 in 10.0 mi Calm Calm - N/A   Clear
11:15 PM 53.6 °F 50.0 °F 88% 29.99 in 10.0 mi Calm Calm - N/A   Clear
11:35 PM 51.8 °F 50.0 °F 94% 29.98 in 10.0 mi Calm Calm - N/A   Clear
11:55 PM 51.8 °F 50.0 °F 94% 29.98 in 10.0 mi Calm Calm - N/A   Clear